Retour au catalogue

FENGYUN 1C DEB

ActifSSO
NORAD 36676·DEBRIS·🇨🇳 China

Lancé May 10, 1999 depuis Taiyuan Satellite Launch Center

Loading…

Prochains Passages (prochaines 24 heures)

TLE

FraisSource: Space-Track

Époque: Sep 12, 2026, 14:39 UTC

1 36676U 99025DYW 26255.61044191  .00000963  00000-0  28060-3 0  9996
2 36676  98.7510 168.0594 0095830  33.7822  85.7241 14.43939728690173

Suivez FENGYUN 1C DEB en temps réel avec AllMySat

Download on the App Store